ACS 3

Satellite information

Favourite Embed

Satellite Type and Status

PAYLOADIN ORBIT

Key statistics

Satellite ACS 3 at a glance.

Uptime

440

Days in orbit

Revolutions

≈ 13.8

Per day

Orbit

SSO

Sun Synchronous Orbit

Inclination

97.5

Latest

Satellite identification and parameters

Extended collection of information and parameters for ACS 3.

Object identification

Identified? True

Debris? False

Object name: ACS 3

International designator: 2024-077B

Object number (NORAD): 59588

Object ID (CCSDS): 59588

Country: UNITED STATES OF AMERICA (US)

Current information (Y/N): Y

RCS size: LARGE

Orbital parameters

Period: 104.438 minutes

Inclination: 97.4555 deg

SMA: 7346.275 km

Apoapsis: 1022.586 km

Periapsis: 913.695 km

RAAN: 177.9998 deg

Eccentricy: 0.0074113

Argument of periapsis: 66.5147 deg

Mean anomaly: 294.3777 deg

Mean motion: 13.78802236 rev/day

Mean motion (dot): 0.00008754 rev/day2

B* drag term: 0.00845 1/REarth

Two-line elements (TLE)

Creation date: July 6, 2025, 10:16 p.m.

Reference frame: TEME

Reference center: EARTH

Epoch: July 6, 2025, 8:25 p.m. UTC

TLE line 0: 0 ACS 3

TLE line 1: 1 59588U 24077B 25187.85122327 .00008754 00000-0 84500-2 0 9991

TLE line 2: 2 59588 97.4555 177.9998 0074113 66.5147 294.3777 13.78802236 60204

Live tracking on map

Real-time ground track for satellite ACS 3.

In-orbit conjunctions

There are no conjunctions computed for ACS 3, at the moment. Check back to stay up to date, as we update our databases every day.

Go to all conjunctions

Associated space launch

NASA's Advanced Composite Solar Sail System (ACS3) is a technology demonstration mission tasked with deploying a composite boom solar sail. NeonSat-1 is a high-resolution optical satellite by South Korea's KAIST that will be deployed as a technology demonstration for a planned future Earth observation constellation.

ACS 3 was lifted into orbit during the mission ‘Electron | Beginning Of The Swarm (ACS3 & NeonSat-1)’, on board a Electron space rocket.

The launch took place on April 23, 2024, 10:32 p.m. from Rocket Lab Launch Complex 1B.

For more information about the launch, click the button.

Launch to space Electron | Beginning Of The Swarm (ACS3 & NeonSat-1)
Electron | Beginning Of The Swarm (ACS3 & NeonSat-1)

Agency: Korea Advanced Institute of Science and Technology

Status: Launch Successful

Launch date: April 23, 2024, 10:32 p.m. UTC

Rocket: Electron

Launch pad: Rocket Lab Launch Complex 1B

Location: Rocket Lab Launch Complex 1, Mahia Peninsula, New Zealand

...

Latest news about this satellite

News about space launch
Like a Diamond in the Sky: How to Spot NASA’s Solar Sail Demo in Orbit

Now that its reflective sail has deployed fully open in orbit, the Advanced Composite Solar Sail System can be seen in the night sky from many locations across the world! Stargazers can join NASA’s #SpotTheSail campaign by using the NASA ap...

News about space launch
Rocket Lab successfully launches the ‘Beginning of the Swarm’ mission

Rocket Lab successfully launched the “Beginning of the Swarm” mission, its 47th overall yesterday. Electron took the skies at 10:32 am NZT...

News about space launch
Electron launches South Korean imaging satellite and NASA solar sail

Rocket Lab launched a South Korean smallsat and a NASA solar sail experiment on the company’s fifth flight of the year April 23.


Newsletter sign-up

Weekly statistics, charts and insights to help you stay on top of the space industry.